Location: Kergonan
(48.2337°N, 4.5518°W)
Time: 10:48:12
(UTC+00:00)

NOSS 3-2 (C) - Pass Details

Date: 18 January 2020
Orbit: 813 x 1399 km, 63.4° (Epoch: 10 February)

Event Time Altitude Azimuth Distance (km) Brightness Sun altitude
Exits shadow 07:07:04 - 315° (NW) 3,287 5.7 -9.1°
Reaches altitude 10° 07:07:38 10° 314° (NW) 3,096 5.5 -9.0°
Maximum altitude 07:15:00 59° 238° (WSW) 1,463 4.3 -7.9°
Drops below altitude 10° 07:23:12 10° 162° (SSE) 3,425 7.0 -6.6°
Sets 07:26:13 0° 158° (SSE) 4,427 7.7 -6.2°
